Hourly Data Report for October 03, 2017

All times are specified in Local Standard Time (LST). Add 1 hour to adjust for Daylight Saving Time where and when it is observed.

WEST VANCOUVER AUT
BRITISH COLUMBIA

49°20'49.350" N
123°11'35.910" W
170.20 m
1108824
71784
WWA

Download Data

Hourly Data (October 2017)
Hourly Data Report for October 3, 2017
Temp Definition
°C
Dew Point Temp Definition
°C
Rel Hum Definition
%
Wind Dir Definition
10's deg

Wind Spd Definition
km/h
Visibility Definition
km
Stn Press Definition
kPa
Hmdx Definition


Wind Chill Definition


Weather Definition


TIME
00:00 10.2 -0.1 49 35 3   100.49     LegendNANA
01:00 10.0 -0.4 48 1 3   100.50     LegendNANA
02:00 9.7 0.0 51 5 2   100.52     LegendNANA
03:00 9.1 0.7 56 4 2   100.53     LegendNANA
04:00 8.9 1.4 59 4 2   100.55     LegendNANA
05:00 8.9 2.0 62 4 2   100.58     LegendNANA
06:00 8.9 1.3 59 3 2   100.58     LegendNANA
07:00 9.4 1.6 58 2 2   100.58     LegendNANA
08:00 11.0 2.3 55   0   100.61     LegendNANA
09:00 12.6 2.9 52 20 2   100.67     LegendNANA
10:00 15.4 -0.1 35 22 2   100.68     LegendNANA
11:00 16.4 0.1 33 22 3   100.63     LegendNANA
12:00 15.9 -2.5 28 18 3   100.59     LegendNANA
13:00 17.2 3.6 40 25 3   100.52     LegendNANA
14:00 17.2 -0.2 31 20 2   100.48     LegendNANA
15:00 17.7 0.5 31 16 1   100.43     LegendNANA
16:00 16.1 2.6 40 13 1   100.36     LegendNANA
17:00 13.2 5.5 60   0   100.31     LegendNANA
18:00 12.3 6.5 68 3 2   100.30     LegendNANA
19:00 12.2 2.7 52 2 3   100.29     LegendNANA
20:00 12.0 2.2 51 1 5   100.27     LegendNANA
21:00 11.1 3.0 58 3 2   100.28     LegendNANA
22:00 11.0 2.0 54 2 2   100.26     LegendNANA
23:00 10.6 2.3 56 3 1   100.26     LegendNANA

Notes on Data Quality.

Legend

  • E = Estimated
  • M = Missing
  • NA = Not Available
  • ‡ = Partner data that is not subject to review by the National Climate Archives
Date modified: